Location: Clarion
(42.7316°N, 93.7330°W)
Time: 09:17:15
(UTC+00:00)

ATLAS 5 CENTAUR R/B - Pass Details

Date: 22 April 2026
Orbit: 360 x 1064 km, 63.3° (Epoch: 16 May)

Event Time Altitude Azimuth Distance (km) Brightness Sun altitude
Rises 04:37:16 0° 329° (NNW) 2,672 6.0 -30.8°
Reaches altitude 10° 04:39:20 10° 336° (NNW) 1,878 4.9 -31.0°
Enters shadow 04:41:44 31° 359° (N) 1,106 3.2 -31.2°
